| time (UTC) | temp C | wind direction | speed KPH | gust KPH | rain 1hr cm | rain 24hr cm | rain mn cm | humidity % | barometer mb |
| 20260504215006 | 16 | 241 | 8.0 | 24.1 | 0.00 | 0.00 | 0.00 | 80 | 1012.3 |
| 20260504214006 | 16 | 208 | 8.0 | 19.3 | 0.00 | 0.00 | 0.00 | 80 | 1012.3 |
| 20260504213006 | 16 | 209 | 4.8 | 19.3 | 0.00 | 0.00 | 0.00 | 80 | 1012.4 |
| 20260504212006 | 16 | 217 | 9.7 | 19.3 | 0.00 | 0.00 | 0.00 | 80 | 1012.5 |
| 20260504211006 | 17 | 227 | 9.7 | 22.5 | 0.00 | 0.00 | 0.00 | 80 | 1012.5 |
| 20260504210006 | 17 | 237 | 11.3 | 19.3 | 0.00 | 0.00 | 0.00 | 79 | 1012.4 |
| 20260504205005 | 17 | 226 | 8.0 | 19.3 | 0.00 | 0.00 | 0.00 | 79 | 1012.4 |
| 20260504204008 | 17 | 249 | 4.8 | 14.5 | 0.00 | 0.00 | 0.00 | 79 | 1012.3 |
| 20260504204006 | 17 | 238 | 8.0 | 19.3 | 0.00 | 0.00 | 0.00 | 79 | 1012.3 |
| 20260504203008 | 17 | 226 | 9.7 | 19.3 | 0.00 | 0.00 | 0.00 | 79 | 1012.5 |
| 20260504203006 | 17 | 230 | 9.7 | 24.1 | 0.00 | 0.00 | 0.00 | 79 | 1012.6 |
| 20260504201006 | 17 | 258 | 8.0 | 19.3 | 0.00 | 0.00 | 0.00 | 79 | 1012.5 |
| 20260504200006 | 17 | 226 | 8.0 | 19.3 | 0.00 | 0.00 | 0.00 | 77 | 1012.5 |
| 20260504195006 | 17 | 242 | 3.2 | 19.3 | 0.00 | 0.00 | 0.00 | 78 | 1012.7 |
| 20260504194006 | 17 | 223 | 8.0 | 19.3 | 0.00 | 0.00 | 0.00 | 78 | 1012.7 |
| 20260504193006 | 17 | 244 | 9.7 | 19.3 | 0.00 | 0.00 | 0.00 | 78 | 1012.7 |
| 20260504192006 | 17 | 225 | 4.8 | 14.5 | 0.00 | 0.00 | 0.00 | 77 | 1012.7 |
| 20260504190007 | 17 | 224 | 6.4 | 19.3 | 0.00 | 0.00 | 0.00 | 78 | 1012.7 |
| 20260504185006 | 17 | 216 | 8.0 | 16.1 | 0.00 | 0.00 | 0.00 | 78 | 1012.7 |
| 20260504184006 | 17 | 234 | 4.8 | 19.3 | 0.00 | 0.00 | 0.00 | 79 | 1012.7 |
| 20260504183006 | 17 | 296 | 6.4 | 19.3 | 0.00 | 0.00 | 0.00 | 79 | 1012.6 |
| 20260504182007 | 17 | 231 | 6.4 | 19.3 | 0.00 | 0.00 | 0.00 | 79 | 1012.6 |
| 20260504181007 | 17 | 226 | 3.2 | 19.3 | 0.00 | 0.00 | 0.00 | 80 | 1012.5 |
| 20260504180006 | 16 | 205 | 8.0 | 16.1 | 0.00 | 0.00 | 0.00 | 81 | 1012.4 |
| 20260504175006 | 16 | 225 | 4.8 | 16.1 | 0.00 | 0.00 | 0.00 | 81 | 1012.3 |
| 20260504174006 | 16 | 232 | 4.8 | 16.1 | 0.00 | 0.00 | 0.00 | 81 | 1012.4 |
| 20260504172006 | 16 | 216 | 3.2 | 12.9 | 0.00 | 0.00 | 0.00 | 81 | 1012.2 |
| 20260504171006 | 16 | 228 | 4.8 | 9.7 | 0.00 | 0.00 | 0.00 | 82 | 1012.1 |
| 20260504151006 | 12 | 228 | 3.2 | 14.5 | 0.00 | 0.00 | 0.00 | 94 | 1011.5 |
| 20260504082005 | 11 | 212 | 3.2 | 8.0 | 0.00 | 0.00 | 0.00 | 97 | 1009.4 |
| 20260504081005 | 11 | 227 | 3.2 | 11.3 | 0.00 | 0.00 | 0.00 | 97 | 1009.4 |
| 20260504050005 | 18 | 43 | 0.0 | 0.0 | 0.00 | 0.00 | 0.00 | 64 | 1007.8 |
| 20260504045005 | 18 | 43 | 0.0 | 3.2 | 0.00 | 0.00 | 0.00 | 62 | 1007.6 |
| 20260504044005 | 19 | 53 | 1.6 | 3.2 | 0.00 | 0.00 | 0.00 | 65 | 1007.7 |
| 20260504043005 | 19 | 17 | 0.0 | 1.6 | 0.00 | 0.00 | 0.00 | 66 | 1007.6 |
| 20260504042005 | 19 | 62 | 0.0 | 4.8 | 0.00 | 0.00 | 0.00 | 65 | 1007.5 |
| 20260504041006 | 20 | 65 | 1.6 | 4.8 | 0.00 | 0.00 | 0.00 | 64 | 1007.3 |
| 20260504040005 | 20 | 48 | 3.2 | 4.8 | 0.00 | 0.00 | 0.00 | 64 | 1007.3 |
| 20260504035005 | 20 | 36 | 1.6 | 4.8 | 0.00 | 0.00 | 0.00 | 65 | 1007.2 |
| 20260504034005 | 20 | 43 | 1.6 | 3.2 | 0.00 | 0.00 | 0.00 | 65 | 1007.1 |
| 20260504033005 | 21 | 295 | 0.0 | 3.2 | 0.00 | 0.00 | 0.00 | 64 | 1007.0 |
| 20260504032007 | 21 | 291 | 1.6 | 3.2 | 0.00 | 0.00 | 0.00 | 60 | 1006.9 |
| 20260504031005 | 22 | 69 | 1.6 | 3.2 | 0.00 | 0.00 | 0.00 | 60 | 1006.7 |
| 20260504030008 | 22 | 286 | 1.6 | 3.2 | 0.00 | 0.00 | 0.00 | 57 | 1006.6 |
| 20260504024006 | 23 | 296 | 3.2 | 4.8 | 0.00 | 0.00 | 0.00 | 53 | 1006.5 |
| 20260504023007 | 24 | 40 | 0.0 | 3.2 | 0.00 | 0.00 | 0.00 | 53 | 1006.6 |
| 20260504022005 | 24 | 318 | 3.2 | 8.0 | 0.00 | 0.00 | 0.00 | 51 | 1006.6 |
| 20260504021007 | 25 | 23 | 0.0 | 4.8 | 0.00 | 0.00 | 0.00 | 50 | 1006.7 |
| 20260504015007 | 25 | 224 | 3.2 | 11.3 | 0.00 | 0.00 | 0.00 | 52 | 1006.7 |
| 20260504014007 | 24 | 251 | 3.2 | 8.0 | 0.00 | 0.00 | 0.00 | 54 | 1006.6 |
| 20260504013008 | 25 | 183 | 3.2 | 9.7 | 0.00 | 0.00 | 0.00 | 54 | 1006.7 |
| 20260504013006 | 25 | 181 | 1.6 | 9.7 | 0.00 | 0.00 | 0.00 | 54 | 1006.7 |
| 20260504012007 | 25 | 194 | 3.2 | 4.8 | 0.00 | 0.00 | 0.00 | 53 | 1006.7 |
| 20260504011006 | 25 | 136 | 1.6 | 9.7 | 0.00 | 0.00 | 0.00 | 53 | 1006.9 |
| 20260504010007 | 26 | 231 | 1.6 | 8.0 | 0.00 | 0.00 | 0.00 | 52 | 1006.9 |
| 20260504005007 | 26 | 169 | 3.2 | 11.3 | 0.00 | 0.00 | 0.00 | 51 | 1007.0 |
| 20260504004007 | 26 | 273 | 4.8 | 11.3 | 0.00 | 0.00 | 0.00 | 50 | 1007.1 |
| 20260504004005 | 26 | 245 | 4.8 | 11.3 | 0.00 | 0.00 | 0.00 | 50 | 1007.1 |
| 20260504003006 | 27 | 331 | 3.2 | 8.0 | 0.00 | 0.00 | 0.00 | 49 | 1007.2 |
| 20260504002007 | 27 | 306 | 1.6 | 11.3 | 0.00 | 0.00 | 0.00 | 49 | 1007.3 |
| 20260504001007 | 27 | 95 | 1.6 | 9.7 | 0.00 | 0.00 | 0.00 | 49 | 1007.4 |
| 20260504000006 | 26 | 298 | 3.2 | 8.0 | 0.00 | 0.00 | 0.00 | 51 | 1007.4 |
| 20260503235007 | 25 | 280 | 3.2 | 12.9 | 0.00 | 0.00 | 0.00 | 54 | 1007.5 |
| 20260503234006 | 25 | 42 | 4.8 | 9.7 | 0.00 | 0.00 | 0.00 | 53 | 1007.6 |
| 20260503233006 | 26 | 329 | 3.2 | 11.3 | 0.00 | 0.00 | 0.00 | 53 | 1007.6 |
| 20260503232007 | 26 | 299 | 4.8 | 14.5 | 0.00 | 0.00 | 0.00 | 51 | 1007.7 |
| 20260503231007 | 27 | 319 | 6.4 | 16.1 | 0.00 | 0.00 | 0.00 | 50 | 1007.8 |
| 20260503230007 | 28 | 304 | 3.2 | 11.3 | 0.00 | 0.00 | 0.00 | 48 | 1007.9 |
| 20260503225007 | 28 | 290 | 3.2 | 11.3 | 0.00 | 0.00 | 0.00 | 46 | 1008.1 |
| 20260503224007 | 28 | 22 | 3.2 | 4.8 | 0.00 | 0.00 | 0.00 | 46 | 1008.1 |
| 20260503223007 | 27 | 32 | 4.8 | 14.5 | 0.00 | 0.00 | 0.00 | 48 | 1008.2 |
| 20260503222007 | 27 | 15 | 8.0 | 12.9 | 0.00 | 0.00 | 0.00 | 48 | 1008.3 |
| 20260503221007 | 27 | 355 | 3.2 | 12.9 | 0.00 | 0.00 | 0.00 | 49 | 1008.4 |
| 20260503220006 | 28 | 318 | 3.2 | 9.7 | 0.00 | 0.00 | 0.00 | 48 | 1008.5 |